Regional Weather Roundup
Issued by NWS Charleston, SC

Current Version | Previous Version | Graphics & Text | Print | Product List | Glossary On
Versions: 1 2 3 4 5 6 7 8 9 10 11 12 13 14 15 16 17 18 19 20 21 22 23 24 25 26 27 28 29 30 31 32 33 34 35 36 37 38 39 40 41 42 43 44 45 46 47 48 49 50
000 ASUS42 KCHS 310613 RWRCHS REGIONAL WEATHER ROUNDUP NATIONAL WEATHER SERVICE CHARLESTON SC 200 AM EDT SUN JUL 31 2016 NOTE: "FAIR" INDICATES FEW OR NO CLOUDS BELOW 12,000 FEET WITH NO SIGNIFICANT WEATHER AND/OR OBSTRUCTIONS TO VISIBILITY. NOT ALL STATIONS ARE QUALITY CONTROLLED. USE DATA WITH CAUTION... ESPECIALLY DEWPOINT OBSERVATIONS. SCZ027-030-031-034>040-042>050-310700- ...SOUTHEAST SOUTH CAROLINA... CITY SKY/WX TMP DP RH WIND PRES REMARKS N CHARLESTON PTCLDY 83 76 79 SW6 30.02F HX 91 6HR MIN TEMP: 82; 6HR MAX TEMP: 88; WATERFRONT PRK N/A 85 79 82 S8 30.00F HX 98 MOUNT PLEASANT FAIR 84 77 79 S9 30.02F HX 94 JOHNS ISLAND FAIR 86 79 79 S8G15 30.02F HX 99 PINOPOLIS N/A 82 73 74 SW5 29.94F MONCKS CORNER FAIR 79 72 78 SW6 30.01F SUMMERVILLE NOT AVBL BEAUFORT MCAS MOCLDY 84 77 79 S5 30.03S HX 94 6HR MIN TEMP: 81; 6HR MAX TEMP: 89; BEAUFORT ARPT MOCLDY 84 77 79 SW6 30.02F HX 94 HILTON HEAD IS CLOUDY 86 79 79 SW8G16 30.04S HX 99 WALTERBORO CLOUDY 79 77 94 S3 30.03S ALLENDALE FAIR 79 73 83 CALM 30.01S ...SOUTHERN MIDLANDS AND PEE DEE... CITY SKY/WX TMP DP RH WIND PRES REMARKS GEORGETOWN FAIR 81 77 89 SW5 30.03S KINGSTREE FAIR 79 70 73 CALM 30.02S ORANGEBURG MOCLDY 79 72 79 S3 30.03S 6HR MIN TEMP: 78; 6HR MAX TEMP: 89; BARNWELL NOT AVBL AIKEN NOT AVBL MANNING FAIR 81 72 74 CALM 30.02S COLUMBIA PTCLDY 80 71 74 S3 30.01S 6HR MIN TEMP: 80; 6HR MAX TEMP: 91; SUMTER PTCLDY 80 72 77 SW8 29.99F 6HR MIN TEMP: 80; 6HR MAX TEMP: 88; FLORENCE MOCLDY 78 74 87 S7 30.00F 6HR MIN TEMP: 76; 6HR MAX TEMP: 79; 6HR PCP: 0.27; MYRTLE BEACH MOCLDY 84 72 65 SW10 30.03S N MYRTLE BEACH MOCLDY 84 78 82 SW13 30.01S HX 95 6HR MIN TEMP: 81; 6HR MAX TEMP: 86; $$ GAZ063-065-086>088-099>101-113>116-118-119-134>141-150-310700- ...SOUTHEAST GEORGIA... CITY SKY/WX TMP DP RH WIND PRES REMARKS SAVANNAH ARPT PTCLDY 83 74 74 SW9 30.03S 6HR MIN TEMP: 83; 6HR MAX TEMP: 89; HUNTER AAF MOCLDY 83 78 86 SW5 30.01S HX 93 6HR MIN TEMP: 83; 6HR MAX TEMP: 88; FORT STEWART NOT AVBL STATESBORO PTCLDY 79 77 95 CALM 30.02F SYLVANIA NOT AVBL CLAXTON FAIR 83 74 74 S3 30.02S ...CSRA...CENTRAL AND FAR SOUTHEAST GEORGIA... CITY SKY/WX TMP DP RH WIND PRES REMARKS THOMSON NOT AVBL AUGUSTA-BUSH PTCLDY 74 72 93 CALM 30.01S 6HR MIN TEMP: 73; 6HR MAX TEMP: 75; 6HR PCP: TRACE; AUGUSTA-DANIEL CLEAR 77 72 84 CALM 30.03S SWAINSBORO FAIR 77 72 83 NW5 30.03S VIDALIA MOCLDY 81 72 74 CALM 30.02F EASTMAN FAIR 78 73 83 CALM 30.05S HAZLEHURST FAIR 82 76 81 CALM 30.02S ALMA PTCLDY 80 73 79 S3 30.03S 6HR MIN TEMP: 80; 6HR MAX TEMP: 89; WAYCROSS CLEAR 82 78 89 CALM 30.03F HX 91 JESUP FAIR 81 77 89 CALM 30.03F BAXLEY FAIR 81 79 94 CALM 30.03S BRUNSWICK PTCLDY 82 77 83 SW6 30.04S HX 91 SAINT SIMONS PTCLDY 83 76 79 SW8 30.03F HX 91 6HR MIN TEMP: 83; 6HR MAX TEMP: 87; $$ SCZ027-028-034-036>038-045-046-048>050-GAZ119-141-310700- ...LAKE AND SUPPLEMENTAL COASTAL OBSERVATIONS... STATION/POSITION TIME TEMP WIND PRES WAVE SWELL AIR SEA DIR/SP/G HT/PER HT/PER/DIR (UTC) (F) (DEG/KT/KT) (MB) (FT/S) (FT/S/D) WINYAH BAY NOT AVBL LAKE MURRAY 0500 82 190/ 5/ 7 1015.6S ACE BASIN NERRS NOT AVBL FORT PULASKI 0500 85 88 210/ 6/ 9 1017.4R SAPELO ISLAND NOT AVBL $$ ANZ835-935-AMZ111-154-330-350-352-354-370-450-454-472-310700- ...C-MAN AND BUOY OBSERVATIONS... STATION/POSITION TIME TEMP WIND PRES WAVE SWELL AIR SEA DIR/SP/G HT/PER HT/PER/DIR (UTC) (F) (DEG/KT/KT) (MB) (FT/S) (FT/S/D) BUOY 41004 0550 85 86 200/ 19/ 23 1016.1S 4/ 5 BUOY 41008 0550 85 87 180/ 17/ 21 1016.4S 4/ 5 FOLLY BEACH CMAN 0600 86 210/ 19/ 21 1016.6F CAPERS NEARSHORE 0508 85 86 220/ 17/ 21 1016.5S FRIPP NEARSHORE 0508 86 87 210/ 17/ 23 1016.7R STATION/POSITION TIME TEMP WIND PRES WAVE SWELL AIR SEA DIR/SP/G HT/PER HT/PER/DIR (UTC) (F) (DEG/KT/KT) (MB) (FT/S) (FT/S/D) 5E ST. MARYS GA 0501 85 N/A 3/ 4 FRYING PAN BUOY 0500 85 85 190/ 16/ 17 1016.5F BUOY 41025 0550 85 84 210/ 19/ 23 1014.9F 4/ 5 2/110/10 CAPE LOOKOUT NC 0500 84 220/ 9/ 11 1016.1F BUOY 41002 0550 85 85 220/ 12/ 14 1019.4F 3/ 4 2/170/ 8 BUOY 41010 0520 85 87 150/ 10/ 14 1018.7F ST AUGUSTINE FL 0600 81 85 190/ 9/ 11 1018.0F $$

USA.gov is the U.S. government's official web portal to all federal, state and local government web resources and services.